Regional Weather Roundup
Issued by NWS State College, PA

Home | Current Version | Previous Version | Graphics & Text | Print | Product List | Glossary On
Versions: 1 2 3 4 5 6 7 8 9 10 11 12 13 14 15 16 17 18 19 20 21 22 23 24 25 26 27 28 29 30 31 32 33 34 35 36 37 38 39 40 41 42 43 44 45 46 47 48 49 50
693
ASUS41 KCTP 240310
RWRCTP

REGIONAL WEATHER ROUNDUP
NATIONAL WEATHER SERVICE STATE COLLEGE PA
1100 PM EDT THU MAR 23 2017

Note: "fair" indicates few or no clouds below 12,000 feet with no
significant weather and/or obstructions to visibility.

* = STATION THAT DOES NOT REPORT PRECIPITATION /E.G. RAIN...SNOW...ETC/
    THUNDER OR FOG.

PAZ002>004-007>009-013>016-020>023-029>032-240400-
WESTERN PENNSYLVANIA

CITY           SKY/WX    TMP DP  RH WIND       PRES   REMARKS
ERIE           CLOUDY    34  22  61 S6        30.26F
MEADVILLE      PTCLDY    41   2  19 VRB5      30.26F
FRANKLIN*      PTCLDY    37   7  28 SE10      30.27F
NEW CASTLE     FAIR      40   5  23 SE5       30.27F
BEAVER COUNTY  NOT AVBL
BUTLER*        CLEAR     39  10  30 SE10      30.29F
PITTSBURGH INT PTCLDY    40   7  25 SE6       30.28F
PITTSBURGH     CLEAR     42   6  22 SE8       30.29F
INDIANA*       CLEAR     41   5  22 SE12      30.35F
LATROBE        CLEAR     41   9  26 E3        30.33F
WASHINGTON CO* CLEAR     30  14  51 CALM      30.30F
$$

PAZ004>006-010>012-017>019-024>028-033>037-041-042-045-046-049>053-240400-
CENTRAL PENNSYLVANIA

CITY           SKY/WX    TMP DP  RH WIND       PRES   REMARKS
BRADFORD       CLOUDY    34   7  32 SE8       30.30F
DUBOIS         CLEAR     36   4  26 SE9       30.31F
CLEARFIELD       N/A    N/A N/A N/A MISG      30.38F
JOHNSTOWN      CLEAR     35   9  33 SE10      30.33F
ALTOONA        CLEAR     35  11  36 S7        30.41F
STATE COLLEGE  CLEAR     35   8  32 CALM      30.42F
WILLIAMSPORT   CLEAR     31  13  47 E6        30.46F
SELINSGROVE    CLEAR     28  20  71 CALM      30.48F
FT INDIANTOWN  CLEAR     30  16  55 CALM      30.51S
CAPITAL CITY   CLEAR     35  16  45 SE7       30.51S
HARRISBURG     PTCLDY    35  21  56 S6        30.51S
YORK           CLEAR     36  16  44 S7        30.50F
$$

PAZ038>040-043-044-047-048-054-055-060>062-067>071-240400-
EASTERN PENNSYLVANIA

CITY           SKY/WX    TMP DP  RH WIND       PRES   REMARKS
SCRANTON       CLOUDY    30  13  49 NE5       30.46F
MOUNT POCONO   CLEAR     21   8  57 CALM      30.43F
ALLENTOWN      CLEAR     29  13  51 N3        30.52F
QUAKERTOWN*    CLEAR     27  18  69 MISG      30.53F
READING        CLEAR     33  16  49 S6        30.52F
LANCASTER      CLEAR     30  19  63 E5        30.52F
COATESVILLE    CLEAR     32  10  40 CALM      30.53F
POTTSTOWN      CLEAR     32  14  47 S3        30.55F
BLUE BELL      CLEAR     28  23  80 CALM      30.54F
DOYLESTOWN     CLEAR     24  13  62 CALM      30.53F
WILLOW GROVE   NOT AVBL
NORTH PHILA    CLEAR     35  15  44 CALM      30.57F
PHILADELPHIA   CLEAR     37  16  42 S7        30.57F
$$




USA.gov is the U.S. government's official web portal to all federal, state and local government web resources and services.